THORAD DELTA 1 DEB, 10392

Orbit data source: Space-Track

THORAD DELTA 1 DEB, 10392 is space debris in SSO originally from a launch on Fri, 15 Nov 1974 UTC launched from the Air Force Western Test Range (AFWTR). Debris objects in space refer to the collection of defunct objects orbiting the Earth. Examples of debris include non-operational satellites, rocket bodies, and fragments generated from explosions, collisions, or faulty payload assembly.

Loading next visibility...
Identifier
10392, 1974-089EH
Orbit
SSO
Country
Flag of USUS
Related business
Manufacturer
Unknown
Mission
Spacecraft
Bus & Motor
Unknown
Mass
Unknown
Launch date (UTC)
1974-11-15 (51 years ago)
Launch vehicle
Unknown
Launch site
Air Force Western Test Range (AFWTR)
Object type
Payload
Rocket body
Debris
Shape & HBR
Unknown shape, 0.1 m
Radar Cross Section
Small (<0.1 m²)

Expand to show TLE details & history
Last TLE update: 18 hours ago

TLE from 18 hours ago
0 THORAD DELTA 1 DEB
1 10392U 74089EH  26035.06492791 -.00000030  00000-0  72116-4 0  9992
2 10392 101.2348  81.2181 0050318 173.9136 215.6289 12.60134226358022
Epoch: 2026-02-04T01:33Z
TLE epoch observation values (Epoch: 2026-02-04T01:33:29.771Z)
Latitude
28.63974°
Longitude
-82.58976°
Altitude
1,457.645 km
Speed
7.121 km/s
True Right ascension
05h 00m 05s
True Declination
28° 30' 30"
Sunlit
Object was in daylight at epoch
Visualization orbit readout
Latitude
Unknown
Longitude
Unknown
Altitude
Unknown
Speed
Unknown
Apparent Right ascension
Unknown
Apparent Declination
Unknown
Sunlit
N/A
Visualization observer readout
Local Sidereal Time
21:26:22
Azimuth
Unknown
Elevation
Unknown
Doppler factor
Unknown
Orbital elements
Apogee altitude
1,459.132 km
Perigee altitude
1,380.656 km
Semi-major axis
7,798.031 km
Eccentricity
0.00503
Inclination
101.2348°
RAAN
81.2181°
Arg. of periapsis
173.9136°
True anomaly
215.29472°
Mean anomaly
215.6289°
Eccentric anomaly
215.46164°
Mean motion
3.15185 °/min
Orbital period
114.22 mins
BSTAR
0.000072116
Loading maneuver chart data...
Computing Atmospheric mass density...

Documentation

Showing up to 5 results
|